Flag for Switzerland Weather past 2 weeks in Sion, Valais, Switzerland

Now
53 °F

Cool.


Feels Like: 53 °F
Forecast: 54 / 76 °F
Wind: 1 mph from Northeast

Location: Sion

Current Time: May 29, 2015 at 5:23:05 AM

Latest Report: May 29, 2015 at 4:00 AM


Visibility: N/A

Pressure: 30.03 "Hg

Humidity: 61%

Dew point: 40 °F

Location of SionLocation

Historic Weather in Sion — Graph

°F

Sion temperature yesterday

Maximum temperature yesterday: 76 °F (at 5:00 PM)
Minimum temperature yesterday: 45 °F (at 6:00 AM)
Average temperature yesterday: 61 °F

Past Weeks' High & Low Weather Summary

 TemperatureHumidityPressure
High78 °F (May 14, 5:00 PM)95% (May 16, 3:00 AM)30.30 "Hg (May 16, 3:00 AM)
Low39 °F (May 16, 4:00 AM)19% (May 28, 5:00 PM)29.67 "Hg (May 14, 5:00 PM)
Average58 °F59%30.00 "Hg
* Reported May 14 4:00 AM — May 29 4:00 AM, Sion, Weather by CustomWeather, © 2015

Note: Actual official high and low records may vary slightly from our data, if they occured in-between our weather recording intervals... More about our weather records

Advertising

Sion weather history for previous 24 hours

 ConditionsComfort  
Time TempWeatherWind HumidityBarometerVisibility
4:00 AM
Fri, May 29
53 °FCool.1 mph61%30.03 "HgN/A
3:00 AM50 °FCool.1 mph73%30.05 "HgN/A
2:00 AM54 °FPassing clouds.1 mph62%30.04 "Hg12 mi
1:00 AM58 °FRefreshingly cool.1 mph52%30.02 "HgN/A
10:00 PM
Thu, May 28
65 °FMild.3 mph33%29.96 "HgN/A
9:00 PM68 °FMild.7 mph28%29.94 "HgN/A
8:00 PM70 °FSunny.9 mph27%29.92 "Hg19 mi
7:00 PM74 °FMild.16 mph22%29.89 "HgN/A
6:00 PM75 °FMild.20 mph20%29.89 "HgN/A
5:00 PM76 °FSunny.17 mph19%29.90 "Hg19 mi
4:00 PM75 °FMild.17 mph20%29.92 "HgN/A
3:00 PM75 °FMild.15 mph25%29.94 "HgN/A
2:00 PM72 °FScattered clouds.10 mph30%29.97 "Hg19 mi
1:00 PM69 °FMild.8 mph34%30.00 "HgN/A
12:00 PM67 °FMild.3 mph35%30.03 "HgN/A
11:00 AM64 °FMild.3 mph39%30.07 "HgN/A
10:00 AM60 °FRefreshingly cool.2 mph44%30.10 "HgN/A
9:00 AM56 °FRefreshingly cool.5 mph55%30.14 "HgN/A
8:00 AM52 °FScattered clouds.5 mph62%30.16 "Hg16 mi
7:00 AM48 °FCool.2 mph71%30.18 "HgN/A
6:00 AM45 °FQuite cool.2 mph83%30.19 "HgN/A
5:00 AM45 °FClear.1 mph82%30.18 "Hg12 mi
Weather by CustomWeather, © 2015

See weather overviewHow to use our weather pages